Regional Weather Roundup
Issued by NWS Northern Indiana

Home | Current Version | Previous Version | Text Only | Print | Product List | Glossary Off
Versions: 1 2 3 4 5 6 7 8 9 10 11 12 13 14 15 16 17 18 19 20 21 22 23 24 25 26 27 28 29 30 31 32 33 34 35 36 37 38 39 40 41 42 43 44 45 46 47 48 49 50

000
ASUS43 KIWX 241700
RWRIWX

KIWX WEATHER ROUNDUP
NATIONAL WEATHER SERVICE NORTHERN INDIANA
100 PM EDT THU JUL 24 2014

NOTE: "FAIR" INDICATES FEW OR NO CLOUDS BELOW 12,000 FEET WITH NO
SIGNIFICANT WEATHER AND/OR OBSTRUCTIONS TO VISIBILITY.

* THESE STATIONS ARE NOT UNDER NWS QUALITY CONTROL. THEY ALSO MAY NOT
  REPORT WEATHER SUCH AS PRECIPITATION OR FOG.

INZ001>027-241800-
NORTHERN INDIANA

CITY           SKY/WX    TMP DP  RH WIND       PRES   REMARKS
GARY*          MOSUNNY   72  59  64 N5        30.18R
VALPARAISO     PTSUNNY   70  52  52 N8        30.16S
SOUTH BEND     PTSUNNY   70  51  51 N6        30.15F
GOSHEN         CLOUDY    72  51  47 N13       30.14S
ANGOLA*        MOSUNNY   72  48  43 NE9       30.13F
FORT WAYNE     MOSUNNY   71  51  49 N13       30.12F
PERU/GRISSOM   PTSUNNY   73  55  53 NE9G18    30.12F

$$
INZ028>050-241800-
CENTRAL INDIANA

CITY           SKY/WX    TMP DP  RH WIND       PRES   REMARKS
LAFAYETTE      MOSUNNY   72  55  55 VRB7      30.13S
KOKOMO*        MOSUNNY   73  54  49 NE13      30.12F
MUNCIE*        PTSUNNY   71  50  47 NE16      30.11S
INDIANAPOLIS   PTSUNNY   73  54  51 N12       30.10S

$$
MIZ043>046-050>051-056>058-064>065-071>073-077>080-241800-
SOUTHWEST LOWER MICHIGAN

CITY           SKY/WX    TMP DP  RH WIND       PRES   REMARKS
BATTLE CREEK   MOSUNNY   71  48  43 N8        30.15F
BENTON HARBOR  MOSUNNY   68  53  58 NW8       30.16S
COLDWATER*     MOSUNNY   72  49  44 NE10      30.14F
HILLSDALE*     PTSUNNY   69  49  47 NE7       30.14F
HOLLAND        MOSUNNY   71  48  43 VRB6      30.16F
GRAND RAPIDS   MOSUNNY   72  51  47 E7        30.15F
KALAMAZOO      MOSUNNY   71  48  43 VRB5      30.14F
STURGIS*       PTSUNNY   70  52  52 NE6       30.13F
THREE RIVERS*  PTSUNNY   71  52  50 CALM      30.14F

$$
OHZ001>008-015>018-024>025-241800-
NORTHWEST OHIO

CITY           SKY/WX    TMP DP  RH WIND       PRES   REMARKS
DEFIANCE       MOSUNNY   73  50  44 NE10      30.12S
FINDLAY        PTSUNNY   73  51  46 N14       30.09S
TOLEDO EXPRESS PTSUNNY   71  48  43 N12       30.11S
TOLEDO METCALF MOSUNNY   72  48  42 N12G20    30.12S
LIMA           PTSUNNY   70  52  52 N14       30.10S

$$
&&



USA.gov is the U.S. government's official web portal to all federal, state and local government web resources and services.